Location: Asheville, NC
(35.6000°N, 82.5500°W)
Time: 02:28:56

YUBILEINY - Pass Details

Date: 10 March 2018
Orbit: 1477 x 1509 km, 82.5° (Epoch: 16 March)

Event Time Altitude Azimuth Distance (km) Brightness Sun altitude
Rises 04:20:38 0° 3° (N) 4,609 ? -30.4°
Reaches altitude 10° 04:24:07 10° 15° (NNE) 3,629 ? -29.7°
Maximum altitude 04:31:23 29° 72° (ENE) 2,476 ? -28.3°
Drops below altitude 10° 04:38:38 10° 129° (SE) 3,635 ? -26.9°
Sets 04:42:04 0° 140° (SE) 4,617 ? -26.2°
